Airfield :
LOGIN :

Register | Disclaimer

   EN    FR    IT 

 










Legend :    VFR   Marginal VFR   IFR   Intensive IFR   Very Intensive IFR
Visi :
Ceiling :
>= 8 km
>= 3000ft
5 to 8 km
1000 to 3000 ft
1500m to 5 km
500 to 1000 ft
800 to 1500m
200 to 500 ft
< 800m
< 200 ft
Symbols :   Thunderstorms  Fog  Heavy snow  Heavy precipitations  Wind > 20 kt
SIGMETs :     Misc.  Thunderstorms  Icing  Turbulence  Mountain Waves  Volcanic Ashes






- Airport Elevation : 15 ft
- IATA code : BHD


EGAC - George Best Belfast City

CURRENT METAR :
  • 300250Z AUTO VRB02KT 9999 -RA FEW011 SCT015 BKN027 05/04 Q1019

EXPIRED METARs :
  • 300220Z AUTO 00000KT 7000 BKN024 BKN030 BKN042 04/04 Q1019
  • 300150Z AUTO VRB02KT 7000 BKN025 BKN032 BKN041 03/03 Q1019
  • 300120Z AUTO 00000KT 9000 FEW028 SCT037 04/04 Q1019

Expired Forecast.
ATIS : +44 02890 935 124



MET'MAP, your aeronautical weather chart ! - Copyright ORBIFLY December 2007 - Disclaimer

ORBIFLY MET'MAP TEAM :

Programming & Development : Alexandra Zaïnal
Original concept : Baudouin d'Aumeries
Technical & hardware support : Manuel Goepfert
Assistance : Marc-Olivier Méhu




SOURCES & CREDITS :

   NOAA